[TLELIST] Archives

 

Current TLEs

July 2nd 2006 PDT

HST 1 20580U 90037B 06181.73510626 +.00000361 +00000-0 +15251-4 0 06603 2 20580 028.4689 321.5742 0003411 324.1563 035.8796 15.00058022687137 ISS (ZARYA) 1 25544U 98067A 06183.28199044 .00014882 00000-0 97323-4 0 2168 2 25544 051.6295 109.7382 0010817 029.6251 108.0049 15.76020078435541 CXO 1 25867U 99040B 06183.62500000 .00000000 00000-0 00000+0 0 9451 2 25867 059.8514 096.5076 5799488 290.6643 359.6022 00.37798572 1214 ____________________________________________________________________ These 2-Line ...Continue Reading

Current TLEs

July 1st 2006 PDT

HST 1 20580U 90037B 06180.73710520 .00000351 00000-0 14517-4 0 6431 2 20580 028.4689 328.0785 0003422 312.7562 047.2738 15.00057575686987 ISS (ZARYA) 1 25544U 98067A 06182.39618056 .00013992 00000-0 91870-4 0 2092 2 25544 051.6314 114.2975 0010741 026.7384 121.7472 15.75994377435401 CXO 1 25867U 99040B 06180.95833333 .00000000 00000-0 00000+0 0 9441 2 25867 059.8510 096.5654 5794794 290.7231 356.5454 00.37792062 1214 ____________________________________________________________________ These 2-Line ...Continue Reading

Current TLEs

June 30th 2006 PDT

HST 1 20580U 90037B 06180.73710520 .00000351 00000-0 14517-4 0 6431 2 20580 028.4689 328.0785 0003422 312.7562 047.2738 15.00057575686987 ISS (ZARYA) 1 25544U 98067A 06181.31630803 .00011855 00000-0 78635-4 0 2031 2 25544 051.6305 119.8582 0010709 024.1936 113.4559 15.75954597435230 CXO 1 25867U 99040B 06180.95833333 .00000000 00000-0 00000+0 0 9441 2 25867 059.8510 096.5654 5794794 290.7231 356.5454 00.37792062 1214 ____________________________________________________________________ These 2-Line ...Continue Reading

Current TLEs

June 29th 2006 PDT

HST 1 20580U 90037B 06178.80763635 +.00000294 +00000-0 +10034-4 0 06606 2 20580 028.4689 340.6559 0003591 289.9122 070.1078 15.00056543686694 ISS (ZARYA) 1 25544U 98067A 06180.46775183 .00017812 00000-0 11185-3 0 1974 2 25544 051.6295 124.2329 0010533 019.8906 340.3034 15.75941118435100 CXO 1 25867U 99040B 06180.95833333 .00000000 00000-0 00000+0 0 9441 2 25867 059.8510 096.5654 5794794 290.7231 356.5454 00.37792062 1214 ____________________________________________________________________ These 2-Line ...Continue Reading

Current TLEs

June 28th 2006 PDT

HST 1 20580U 90037B 06177.80963520 .00000294 00000-0 99796-5 0 6412 2 20580 028.4688 347.1619 0003671 279.3085 080.7087 15.00056249686546 ISS (ZARYA) 1 25544U 98067A 06179.35056551 .00007835 00000-0 53559-4 0 1900 2 25544 051.6296 129.9821 0010386 016.5601 121.1982 15.75894925434921 CXO 1 25867U 99040B 06178.33333333 +.00000000 +00000-0 +00000-0 0 09435 2 25867 059.8577 096.5786 5789475 290.8435 359.1370 00.37783573001213 ____________________________________________________________________ These 2-Line ...Continue Reading

Current TLEs

June 27th 2006 PDT

HST 1 20580U 90037B 06177.80963520 .00000294 00000-0 99796-5 0 6412 2 20580 028.4688 347.1619 0003671 279.3085 080.7087 15.00056249686546 ISS (ZARYA) 1 25544U 98067A 06178.46215278 .00006961 00000-0 48096-4 0 1857 2 25544 051.6294 134.5585 0010311 013.6617 120.5432 15.75876604434782 CXO 1 25867U 99040B 06178.33333333 +.00000000 +00000-0 +00000-0 0 09435 2 25867 059.8577 096.5786 5789475 290.8435 359.1370 00.37783573001213 ____________________________________________________________________ These 2-Line ...Continue Reading

The lists will resume automatically from tomorrow at 01:45 UTC

June 26th 2006 PDT

The lists will resume automatically from tomorrow at 01:45 UTC ____________________________________________________________________ These 2-Line Elements (TLEs) are direct from DoD/ USSTRATCOM/ US Space Command with permission. Updates are provided automatically daily. By receiving this email, you agree not to transfer any data or information received under this agreement, including the analysis of tracking data, to any other entity without the express approval of the Aus-City Forum Admins and/ or DoD/ USSTRATCO ...Continue Reading

List Issues and Problems

June 15th 2006 PDT

Due to a server migration, there are server issues with the Aus-City Lists. The server owners are working on the problems and they have given no ETA at this time. We will keep you updated when able. ____________________________________________________________________ These 2-Line Elements (TLEs) are direct from DoD/ USSTRATCOM/ US Space Command with permission. Updates are provided automatically daily. By receiving this email, you agree not to transfer any data or information received under this agreement, includ ...Continue Reading

Current TLEs

June 9th 2006 PDT

HST 1 20580U 90037B 06160.17826303 .00000431 00000-0 20788-4 0 6294 2 20580 028.4665 102.0906 0003993 101.1487 258.9550 15.00048019683898 ISS (ZARYA) 1 25544U 98067A 06160.44840816 .00015891 00000-0 10358-3 0 825 2 25544 051.6325 227.3177 0009501 313.6941 164.0530 15.76046038431945 CXO 1 25867U 99040B 06159.83333333 .00000000 00000-0 00000+0 0 9359 2 25867 059.7040 096.7745 5787849 291.4203 000.4068 00.37797042 1213 ____________________________________________________________________ These 2-Line ...Continue Reading

Current TLEs

June 8th 2006 PDT

HST 1 20580U 90037B 06158.98065552 +.00000406 +00000-0 +18821-4 0 06322 2 20580 028.4664 109.8960 0004002 088.6048 271.5000 15.00047201683710 ISS (ZARYA) 1 25544U 98067A 06159.62722977 .00015872 00000-0 10361-3 0 788 2 25544 051.6325 231.5492 0009214 309.4096 186.0426 15.76016798431811 CXO 1 25867U 99040B 06159.83333333 .00000000 00000-0 00000+0 0 9359 2 25867 059.7040 096.7745 5787849 291.4203 000.4068 00.37797042 1213 ____________________________________________________________________ These 2-Line ...Continue Reading
  • This mailing list is a public mailing list - anyone may join or leave, at any time.
  • This mailing list is announce-only.

International Space Station (ISS) / Hubble Space Telescope (HST) / Chandra X-Ray Observatory Orbital Data via EMAIL

Privacy Policy:

Private list